Home   Weather   Wittenberge   Past weeks

Flag for Germany Past Weather in Wittenberge, Mecklenburg-Western Pomerania, Germany — Yesterday and Last 2 Weeks

Now
50 °F

Partly sunny.


Feels Like: 46 °F
Forecast: 33 / 56 °F
Wind: 10 mph from West

Location: Mecklenburg-Vorpommern - Parchim

Current Time: Apr 29, 2017 at 3:49:47 pm

Latest Report: Apr 29, 2017 at 3:20 pm


Visibility: N/A

Pressure: 30.04 "Hg

Humidity: 54%

Dew Point: 34 °F

Location of WittenbergeLocation

Past Weather in Wittenberge — Graph

°F

Wittenberge Temperature Yesterday

Maximum temperature yesterday: 54 °F (at 12:20 pm)
Minimum temperature yesterday: 27 °F (at 6:20 am)
Average temperature yesterday: 48 °F

High & Low Weather Summary for the Past Weeks

 TemperatureHumidityPressure
High57 °F (Apr 21, 1:50 pm)100% (Apr 15, 10:20 am)30.60 "Hg (Apr 15, 10:20 am)
Low21 °F (Apr 20, 6:20 am)35% (Apr 27, 5:20 pm)29.56 "Hg (Apr 25, 10:50 am)
Average45 °F68%30.03 "Hg
* Reported Apr 14 2:20 pm — Apr 29 2:20 pm, Wittenberge, Weather by CustomWeather, © 2017

Note: Actual official high and low records may vary slightly from our data, if they occured in-between our weather recording intervals... More about our weather records

Advertising

Wittenberge Weather History for the Previous 24 Hours

Scroll right to see more
 ConditionsComfort  
Time TempWeatherWind HumidityBarometerVisibility
2:20 pm
Sat, Apr 29
48 °FBroken clouds.12 mph58%30.01 "HgN/A
1:50 pm48 °FPartly sunny.12 mph54%30.01 "HgN/A
1:20 pm46 °FPartly sunny.16 mph71%30.01 "HgN/A
12:50 pm48 °FBroken clouds.9 mph58%30.01 "HgN/A
12:20 pm46 °FPassing clouds.7 mph66%30.01 "HgN/A
11:50 am46 °FBroken clouds.5 mph71%30.01 "HgN/A
11:20 am46 °FPartly sunny.9 mph71%30.01 "HgN/A
10:50 am46 °FBroken clouds.10 mph71%30.01 "HgN/A
10:20 am48 °FBroken clouds.12 mph76%29.98 "HgN/A
9:20 am43 °FScattered clouds.9 mph81%29.98 "HgN/A
5:50 pm
Fri, Apr 28
54 °FSunny.9 mph44%29.89 "Hg10 mi
5:20 pm54 °FPassing clouds.8 mph41%29.89 "HgN/A
4:50 pm54 °FPassing clouds.8 mph41%29.89 "HgN/A
4:20 pm54 °FPassing clouds.6 mph44%29.89 "HgN/A
3:50 pm54 °FPassing clouds.7 mph41%29.89 "HgN/A
3:20 pm54 °FPassing clouds.7 mph41%29.89 "HgN/A
Weather by CustomWeather, © 2017

See weather overviewHow to use our weather pages